GW4478 Weather Reports


time (UTC)temp
C
wind
direction
speed
KPH
gust
KPH
rain 1hr
cm
rain 24hr
cm
rain mn
cm
humidity
%
barometer
mb
20260510231014 23 58 1.6 3.2 0.00 0.00 0.00 66 1016.3
20260510230508 23 58 0.0 3.2 0.00 0.00 0.00 65 1016.2
20260510230037 25 58 0.0 3.2 0.00 0.00 0.00 45 1016.2
20260510225513 25 53 1.6 3.2 0.00 0.00 0.00 42 1016.3
20260510225012 25 274 1.6 3.2 0.00 0.00 0.00 43 1016.3
20260510224527 26 236 1.6 3.2 0.00 0.00 0.00 44 1016.3
20260510224012 26 348 1.6 3.2 0.00 0.00 0.00 43 1016.3
20260510223503 26 71 0.0 3.2 0.00 0.00 0.00 43 1016.3
20260510223027 25 259 0.0 3.2 0.00 0.00 0.00 41 1016.2
20260510222510 25 326 0.0 6.4 0.00 0.00 0.00 41 1016.4
20260510222010 25 178 1.6 6.4 0.00 0.00 0.00 47 1016.4
20260510221508 26 76 0.0 4.8 0.00 0.00 0.00 42 1016.4
20260510221007 26 59 0.0 4.8 0.00 0.00 0.00 42 1016.4
20260510220511 26 298 1.6 6.4 0.00 0.00 0.00 41 1016.5
20260510220024 26 316 3.2 6.4 0.00 0.00 0.00 41 1016.6
20260510215506 26 230 3.2 6.4 0.00 0.00 0.00 42 1016.6
20260510215004 26 182 1.6 4.8 0.00 0.00 0.00 40 1016.5
20260510214507 26 232 1.6 4.8 0.00 0.00 0.00 44 1016.5
20260510214004 26 258 1.6 8.0 0.00 0.00 0.00 44 1016.5
20260510213509 26 231 4.8 8.0 0.00 0.00 0.00 44 1016.5
20260510213030 26 181 1.6 6.4 0.00 0.00 0.00 48 1016.6
20260510212510 26 159 3.2 8.0 0.00 0.00 0.00 45 1016.6
20260510212012 26 178 4.8 8.0 0.00 0.00 0.00 47 1016.7
20260510211520 26 174 3.2 6.4 0.00 0.00 0.00 45 1016.6
20260510211010 26 152 1.6 4.8 0.00 0.00 0.00 43 1016.7
20260510210508 26 13 1.6 6.4 0.00 0.00 0.00 42 1016.7
20260510210023 26 165 3.2 6.4 0.00 0.00 0.00 42 1016.7
20260510205510 26 276 1.6 4.8 0.00 0.00 0.00 47 1016.7
20260510205009 26 213 1.6 4.8 0.00 0.00 0.00 45 1016.7
20260510204507 26 360 1.6 4.8 0.00 0.00 0.00 45 1016.6
20260510204003 26 333 1.6 6.4 0.00 0.00 0.00 43 1016.8
20260510203509 25 329 1.6 8.0 0.00 0.00 0.00 43 1017.0
20260510203012 25 161 3.2 8.0 0.00 0.00 0.00 46 1017.0
20260510202510 25 225 4.8 6.4 0.00 0.00 0.00 49 1017.1
20260510202013 25 213 3.2 6.4 0.00 0.00 0.00 47 1017.2
20260510201530 25 200 3.2 9.7 0.00 0.00 0.00 49 1017.2
20260510201008 25 236 6.4 9.7 0.00 0.00 0.00 46 1017.2
20260510200510 25 188 3.2 11.3 0.00 0.00 0.00 51 1017.2
20260510200022 25 351 0.0 9.7 0.00 0.00 0.00 45 1017.3
20260510195503 25 22 1.6 6.4 0.00 0.00 0.00 47 1017.3
20260510195010 25 136 1.6 6.4 0.00 0.00 0.00 48 1017.3
20260510194507 25 72 1.6 8.0 0.00 0.00 0.00 45 1017.4
20260510194007 25 5 3.2 9.7 0.00 0.00 0.00 45 1017.3
20260510193510 26 306 3.2 9.7 0.00 0.00 0.00 46 1017.3
20260510193030 25 200 0.0 6.4 0.00 0.00 0.00 46 1017.4
20260510192510 25 44 4.8 11.3 0.00 0.00 0.00 47 1017.4
20260510192006 25 77 3.2 11.3 0.00 0.00 0.00 47 1017.3
20260510191531 25 28 3.2 6.4 0.00 0.00 0.00 48 1017.4
20260510191011 25 193 1.6 8.0 0.00 0.00 0.00 55 1017.4
20260510190510 25 240 4.8 8.0 0.00 0.00 0.00 54 1017.5
20260510190030 25 235 4.8 8.0 0.00 0.00 0.00 53 1017.6
20260510185507 25 246 3.2 6.4 0.00 0.00 0.00 49 1017.6
20260510185013 25 267 3.2 6.4 0.00 0.00 0.00 56 1017.7
20260510184530 25 277 3.2 6.4 0.00 0.00 0.00 56 1017.7
20260510184011 25 300 4.8 6.4 0.00 0.00 0.00 56 1017.8
20260510183504 25 208 1.6 4.8 0.00 0.00 0.00 50 1017.8
20260510183034 25 220 1.6 8.0 0.00 0.00 0.00 55 1017.8
20260510182512 25 200 4.8 11.3 0.00 0.00 0.00 55 1017.8
20260510182008 25 242 6.4 11.3 0.00 0.00 0.00 58 1017.8
20260510181516 24 283 1.6 11.3 0.00 0.00 0.00 59 1017.8
20260510181007 24 256 4.8 11.3 0.00 0.00 0.00 61 1018.0
20260510180507 24 238 3.2 11.3 0.00 0.00 0.00 61 1018.0
20260510180019 24 241 4.8 11.3 0.00 0.00 0.00 59 1018.1
20260510175510 23 17 3.2 9.7 0.00 0.00 0.00 63 1018.1
20260510175009 23 256 3.2 8.0 0.00 0.00 0.00 57 1018.1
20260510174531 23 313 0.0 3.2 0.00 0.00 0.00 57 1018.2
20260510174014 23 103 0.0 6.4 0.00 0.00 0.00 54 1018.3
20260510173511 23 231 3.2 6.4 0.00 0.00 0.00 56 1018.3
20260510173027 23 285 3.2 6.4 0.00 0.00 0.00 63 1018.3
20260510172510 23 306 3.2 6.4 0.00 0.00 0.00 70 1018.3
20260510172012 22 264 1.6 11.3 0.00 0.00 0.00 69 1018.3
20260510171530 22 240 6.4 11.3 0.00 0.00 0.00 70 1018.3
20260510171009 23 289 3.2 8.0 0.00 0.00 0.00 66 1018.4
20260510170509 23 322 1.6 8.0 0.00 0.00 0.00 73 1018.3
20260510170017 23 296 4.8 8.0 0.00 0.00 0.00 73 1018.4
20260510165510 23 312 6.4 8.0 0.00 0.00 0.00 76 1018.5
20260510165010 22 84 1.6 6.4 0.00 0.00 0.00 75 1018.5
20260510164537 22 213 0.0 9.7 0.00 0.00 0.00 76 1018.6
20260510164014 23 178 4.8 9.7 0.00 0.00 0.00 79 1018.7
20260510163509 22 65 0.0 4.8 0.00 0.00 0.00 77 1018.8
20260510163024 22 332 1.6 6.4 0.00 0.00 0.00 79 1018.8
20260510162514 21 213 3.2 6.4 0.00 0.00 0.00 82 1018.8
20260510162011 21 269 3.2 6.4 0.00 0.00 0.00 82 1018.9
20260510161512 21 281 3.2 8.0 0.00 0.00 0.00 84 1018.8
20260510161013 21 270 3.2 9.7 0.00 0.00 0.00 82 1018.7
20260510160507 21 281 4.8 9.7 0.00 0.00 0.00 82 1018.6
20260510160028 21 310 3.2 11.3 0.00 0.00 0.00 83 1018.7
20260510155516 21 263 4.8 11.3 0.00 0.00 0.00 81 1018.6
20260510155010 21 252 4.8 9.7 0.00 0.00 0.00 83 1018.5
20260510154535 21 156 6.4 9.7 0.00 0.00 0.00 83 1018.5
20260510154008 21 254 6.4 8.0 0.00 0.00 0.00 83 1018.5
20260510153512 21 308 1.6 6.4 0.00 0.00 0.00 84 1018.6
20260510153023 21 279 3.2 6.4 0.00 0.00 0.00 83 1018.6
20260510152514 21 72 1.6 9.7 0.00 0.00 0.00 83 1018.5
20260510152009 21 296 4.8 9.7 0.00 0.00 0.00 87 1018.5
20260510151531 20 318 1.6 6.4 0.00 0.00 0.00 86 1018.4
20260510151013 20 152 1.6 6.4 0.00 0.00 0.00 86 1018.4
20260510150503 20 142 1.6 8.0 0.00 0.00 0.00 86 1018.5
20260510150017 20 157 3.2 8.0 0.00 0.00 0.00 90 1018.6
20260510145511 19 191 4.8 8.0 0.00 0.00 0.00 90 1018.5
20260510145007 19 180 4.8 8.0 0.00 0.00 0.00 91 1018.5
20260510144529 18 137 3.2 8.0 0.00 0.00 0.00 93 1018.6
20260510144012 18 227 4.8 9.7 0.00 0.00 0.00 93 1018.6
20260510143506 18 241 6.4 9.7 0.00 0.00 0.00 94 1018.4
20260510143026 18 232 6.4 9.7 0.00 0.00 0.00 94 1018.5
20260510142513 18 238 8.0 11.3 0.00 0.00 0.00 95 1018.5
20260510142010 17 206 6.4 11.3 0.00 0.00 0.00 95 1018.5
20260510141527 17 219 6.4 8.0 0.00 0.00 0.00 95 1018.5
20260510141009 17 210 3.2 6.4 0.00 0.00 0.00 96 1018.5
20260510140509 17 188 1.6 6.4 0.00 0.00 0.00 96 1018.5
20260510140026 16 155 1.6 4.8 0.00 0.00 0.00 96 1018.5
20260510135510 16 182 1.6 4.8 0.00 0.00 0.00 96 1018.5
20260510135007 16 148 1.6 4.8 0.00 0.00 0.00 96 1018.5
20260510134530 16 194 0.0 3.2 0.00 0.00 0.00 96 1018.4
20260510134005 16 125 1.6 4.8 0.00 0.00 0.00 96 1018.4
20260510133509 15 248 1.6 4.8 0.00 0.00 0.00 96 1018.4
20260510133028 15 190 0.0 3.2 0.00 0.00 0.00 96 1018.4
20260510132508 15 190 0.0 3.2 0.00 0.00 0.00 96 1018.3
20260510132003 15 250 0.0 3.2 0.00 0.00 0.00 96 1018.3
20260510131503 15 250 0.0 3.2 0.00 0.00 0.00 96 1018.5
20260510131004 15 198 0.0 3.2 0.00 0.00 0.00 96 1018.3
20260510130504 15 198 0.0 3.2 0.00 0.00 0.00 96 1018.3
20260510130014 15 193 1.6 4.8 0.00 0.00 0.00 96 1018.3
20260510125504 14 225 0.0 4.8 0.00 0.00 0.00 96 1018.3
20260510125007 14 235 3.2 4.8 0.00 0.00 0.00 96 1018.1
20260510124505 14 188 1.6 3.2 0.00 0.00 0.00 96 1017.9
20260510124004 14 229 1.6 3.2 0.00 0.00 0.00 96 1017.8
20260510123504 14 223 1.6 3.2 0.00 0.00 0.00 96 1017.8
20260510123004 14 211 1.6 6.4 0.00 0.00 0.00 96 1017.7
20260510122502 13 196 1.6 6.4 0.00 0.00 0.00 96 1017.7
20260510122002 13 171 3.2 6.4 0.00 0.00 0.00 96 1017.6
20260510121504 13 161 1.6 3.2 0.00 0.00 0.00 96 1017.6
20260510121007 13 138 0.0 3.2 0.00 0.00 0.00 96 1017.6
20260510120504 13 138 0.0 3.2 0.00 0.00 0.00 96 1017.5
20260510120007 13 138 0.0 3.2 0.00 0.00 0.00 96 1017.5
20260510115506 13 138 1.6 3.2 0.00 0.00 0.00 96 1017.3
20260510115006 13 105 0.0 0.0 0.00 0.00 0.00 96 1017.1
20260510114507 12 105 0.0 3.2 0.00 0.00 0.00 96 1017.0
20260510114004 12 105 0.0 3.2 0.00 0.00 0.00 96 1017.0
20260510113506 12 105 0.0 0.0 0.00 0.00 0.00 96 1016.9
20260510113007 12 105 0.0 0.0 0.00 0.00 0.00 95 1016.9
20260510112506 11 105 0.0 3.2 0.00 0.00 0.00 95 1016.8
20260510112003 11 105 0.0 3.2 0.00 0.00 0.00 95 1016.7
20260510111507 11 105 0.0 3.2 0.00 0.00 0.00 95 1016.5
20260510111003 12 105 0.0 1.6 0.00 0.00 0.00 95 1016.5
20260510110505 12 105 0.0 0.0 0.00 0.00 0.00 95 1016.5
20260510110011 12 105 0.0 0.0 0.00 0.00 0.00 95 1016.4
20260510105504 12 105 0.0 3.2 0.00 0.00 0.00 95 1016.4
20260510105004 12 105 0.0 3.2 0.00 0.00 0.00 95 1016.2
20260510104506 12 105 0.0 3.2 0.00 0.00 0.00 95 1016.1
20260510104004 12 10 0.0 3.2 0.00 0.00 0.00 95 1016.0
20260510103504 12 10 0.0 3.2 0.00 0.00 0.00 95 1015.9
20260510103009 12 10 0.0 1.6 0.00 0.00 0.00 95 1015.9
20260510102504 12 10 1.6 3.2 0.00 0.00 0.00 95 1015.9
20260510102004 12 129 0.0 3.2 0.00 0.00 0.00 95 1015.8
20260510101509 12 129 0.0 0.0 0.00 0.00 0.00 95 1015.7
20260510101004 12 129 0.0 0.0 0.00 0.00 0.00 95 1015.8
20260510100503 12 129 0.0 0.0 0.00 0.00 0.00 95 1015.7
20260510100009 12 129 0.0 0.0 0.00 0.00 0.00 95 1015.7
20260510095503 12 129 0.0 0.0 0.00 0.00 0.00 95 1015.7
20260510095003 12 129 0.0 0.0 0.00 0.00 0.00 95 1015.7
20260510094520 12 129 0.0 3.2 0.00 0.00 0.00 95 1015.7
20260510094007 12 129 0.0 3.2 0.00 0.00 0.00 95 1015.8
20260510093504 12 129 0.0 3.2 0.00 0.00 0.00 95 1015.8
20260510093008 12 129 1.6 3.2 0.00 0.00 0.00 95 1015.7
20260510092504 12 129 0.0 3.2 0.00 0.00 0.00 95 1015.7
20260510092003 12 129 1.6 1.6 0.00 0.00 0.00 95 1015.7
20260510091519 12 134 1.6 3.2 0.00 0.00 0.00 95 1015.8
20260510091004 12 38 0.0 1.6 0.00 0.00 0.00 95 1015.8
20260510090504 12 38 0.0 3.2 0.00 0.00 0.00 95 1015.8
20260510090006 12 38 0.0 3.2 0.00 0.00 0.00 95 1015.7
20260510085503 12 38 0.0 3.2 0.00 0.00 0.00 95 1015.7
20260510085003 12 38 0.0 3.2 0.00 0.00 0.00 95 1015.7
20260510084511 12 150 0.0 1.6 0.00 0.00 0.00 95 1015.6
20260510084002 12 150 0.0 3.2 0.00 0.00 0.00 95 1015.4
20260510083506 12 150 0.0 3.2 0.00 0.00 0.00 95 1015.3
20260510083010 12 150 0.0 0.0 0.00 0.00 0.00 95 1015.2
20260510082504 12 150 0.0 0.0 0.00 0.00 0.00 95 1015.1
20260510082005 12 150 0.0 3.2 0.00 0.00 0.00 95 1015.0
20260510081510 12 150 0.0 3.2 0.00 0.00 0.00 95 1015.0
20260510081006 12 150 0.0 0.0 0.00 0.00 0.00 95 1014.9
20260510080502 12 150 0.0 0.0 0.00 0.00 0.00 95 1014.8
20260510080009 12 150 0.0 0.0 0.00 0.00 0.00 95 1014.8
20260510075504 12 150 0.0 0.0 0.00 0.00 0.00 95 1014.6
20260510075004 13 150 0.0 0.0 0.00 0.00 0.00 95 1014.6
20260510074511 13 150 0.0 0.0 0.00 0.00 0.00 94 1014.6
20260510074004 13 150 0.0 0.0 0.00 0.00 0.00 95 1014.6
20260510073503 13 150 0.0 0.0 0.00 0.00 0.00 94 1014.6
20260510073010 13 150 0.0 0.0 0.00 0.00 0.00 95 1014.5
20260510072503 13 150 0.0 3.2 0.00 0.00 0.00 95 1014.6
20260510072007 13 150 0.0 3.2 0.00 0.00 0.00 94 1014.6
20260510071514 13 150 0.0 3.2 0.00 0.00 0.00 94 1014.7
20260510071004 13 150 0.0 3.2 0.00 0.00 0.00 94 1014.7
20260510070503 13 150 0.0 3.2 0.00 0.00 0.00 94 1014.8
20260510070012 13 150 0.0 3.2 0.00 0.00 0.00 94 1014.8
20260510065506 13 150 0.0 3.2 0.00 0.00 0.00 94 1014.8
20260510065006 13 150 0.0 3.2 0.00 0.00 0.00 94 1014.8
20260510064511 13 150 0.0 3.2 0.00 0.00 0.00 94 1014.8
20260510064005 13 150 0.0 0.0 0.00 0.00 0.00 94 1014.8
20260510063507 13 150 0.0 0.0 0.00 0.00 0.00 94 1014.8
20260510063014 13 150 0.0 0.0 0.00 0.00 0.00 94 1014.8
20260510062503 13 150 0.0 3.2 0.00 0.00 0.00 94 1014.8
20260510062003 13 150 0.0 3.2 0.00 0.00 0.00 94 1014.7
20260510061524 13 150 0.0 1.6 0.00 0.00 0.00 94 1014.9
20260510061006 13 124 0.0 1.6 0.00 0.00 0.00 94 1014.8
20260510060507 13 103 0.0 3.2 0.00 0.00 0.00 94 1014.9
20260510060036 13 103 0.0 3.2 0.00 0.00 0.00 94 1014.8
20260510055507 13 103 0.0 0.0 0.00 0.00 0.00 94 1014.7
20260510055006 14 103 0.0 0.0 0.00 0.00 0.00 93 1014.8
20260510054514 14 103 0.0 3.2 0.00 0.00 0.00 94 1014.8
20260510054005 14 103 0.0 3.2 0.00 0.00 0.00 94 1014.9
20260510053507 14 103 0.0 3.2 0.00 0.00 0.00 93 1014.9
20260510053017 14 103 0.0 3.2 0.00 0.00 0.00 93 1014.9
20260510052507 15 103 0.0 3.2 0.00 0.00 0.00 93 1014.9
20260510052005 15 103 0.0 3.2 0.00 0.00 0.00 93 1014.8
20260510051519 15 103 0.0 3.2 0.00 0.00 0.00 93 1014.8
20260510051011 15 103 0.0 3.2 0.00 0.00 0.00 93 1014.9
20260510050507 15 196 0.0 3.2 0.00 0.00 0.00 94 1014.9
20260510050018 15 196 0.0 3.2 0.00 0.00 0.00 93 1014.9
20260510045507 15 196 0.0 3.2 0.00 0.00 0.00 93 1014.9
20260510045010 15 196 0.0 1.6 0.00 0.00 0.00 92 1014.9
20260510044519 15 196 0.0 3.2 0.00 0.00 0.00 92 1014.7
20260510044006 16 196 0.0 3.2 0.00 0.00 0.00 93 1014.8
20260510043507 16 196 0.0 3.2 0.00 0.00 0.00 93 1014.9
20260510043016 16 196 0.0 3.2 0.00 0.00 0.00 92 1014.9
20260510042507 16 196 0.0 3.2 0.00 0.00 0.00 93 1014.9
20260510042004 16 196 0.0 3.2 0.00 0.00 0.00 93 1015.0
20260510041515 15 196 0.0 3.2 0.00 0.00 0.00 93 1015.0
20260510041005 15 189 0.0 3.2 0.00 0.00 0.00 92 1015.1
20260510040503 16 189 0.0 3.2 0.00 0.00 0.00 92 1015.0
20260510040012 16 189 0.0 3.2 0.00 0.00 0.00 92 1015.0
20260510035502 16 189 0.0 3.2 0.00 0.00 0.00 92 1015.1
20260510035002 16 189 0.0 3.2 0.00 0.00 0.00 92 1015.0
20260510034510 16 198 0.0 3.2 0.00 0.00 0.00 93 1015.1
20260510034004 16 207 1.6 3.2 0.00 0.00 0.00 93 1015.1
20260510033504 16 224 1.6 3.2 0.00 0.00 0.00 93 1015.1
20260510033004 16 196 1.6 3.2 0.00 0.00 0.00 93 1015.1
20260510032502 16 184 1.6 3.2 0.00 0.00 0.00 93 1014.9
20260510032002 16 201 1.6 3.2 0.00 0.00 0.00 93 1014.9
20260510031507 16 192 0.0 3.2 0.00 0.00 0.00 93 1014.9
20260510031003 16 192 0.0 1.6 0.00 0.00 0.00 93 1014.9
20260510030502 16 192 0.0 3.2 0.00 0.00 0.00 93 1014.9
20260510030014 16 192 0.0 3.2 0.00 0.00 0.00 93 1014.8
20260510025504 15 192 0.0 3.2 0.00 0.00 0.00 93 1014.6
20260510025005 15 150 0.0 3.2 0.00 0.00 0.00 93 1014.6
20260510024514 15 125 0.0 3.2 0.00 0.00 0.00 93 1014.7
20260510024004 15 125 0.0 3.2 0.00 0.00 0.00 93 1014.5
20260510023503 15 125 0.0 3.2 0.00 0.00 0.00 92 1014.4
20260510023029 16 125 0.0 1.6 0.00 0.00 0.00 92 1014.4
20260510022506 16 125 0.0 3.2 0.00 0.00 0.00 92 1014.3
20260510022004 16 125 0.0 3.2 0.00 0.00 0.00 92 1014.2
20260510021511 16 125 0.0 3.2 0.00 0.00 0.00 92 1014.0
20260510021003 16 125 0.0 3.2 0.00 0.00 0.00 92 1014.0
20260510020503 16 125 0.0 1.6 0.00 0.00 0.00 92 1013.8
20260510020008 16 125 0.0 1.6 0.00 0.00 0.00 92 1013.8
20260510015503 16 125 0.0 3.2 0.00 0.00 0.00 92 1013.6
20260510015006 16 125 0.0 3.2 0.00 0.00 0.00 91 1013.5
20260510014515 16 125 0.0 3.2 0.00 0.00 0.00 91 1013.5
20260510014006 17 125 0.0 3.2 0.00 0.00 0.00 91 1013.4
20260510013509 17 125 0.0 3.2 0.00 0.00 0.00 91 1013.2
20260510013016 17 125 0.0 3.2 0.00 0.00 0.00 90 1013.3
20260510012503 17 125 0.0 1.6 0.00 0.00 0.00 90 1013.2
20260510012004 17 125 0.0 0.0 0.00 0.00 0.00 90 1013.1
20260510011522 17 125 0.0 0.0 0.00 0.00 0.00 90 1013.1
20260510011008 17 125 0.0 0.0 0.00 0.00 0.00 90 1013.0
20260510010504 17 125 0.0 3.2 0.00 0.00 0.00 89 1012.9
20260510010013 18 125 0.0 3.2 0.00 0.00 0.00 88 1012.9
20260510005503 18 125 0.0 1.6 0.00 0.00 0.00 87 1012.8
20260510005004 18 125 0.0 0.0 0.00 0.00 0.00 87 1012.8
20260510004511 18 125 0.0 0.0 0.00 0.00 0.00 1012.7
20260510004003 19 125 0.0 3.2 0.00 0.00 0.00 1012.5
20260510003504 19 125 0.0 3.2 0.00 0.00 0.00 83 1012.5
20260510003019 20 125 0.0 3.2 0.00 0.00 0.00 83 1012.5
20260510002508 20 125 1.6 1.6 0.00 0.00 0.00 81 1012.4
20260510002006 20 120 1.6 1.6 0.00 0.00 0.00 82 1012.4
20260510001518 20 99 1.6 1.6 0.00 0.00 0.00 84 1012.4
20260510001009 20 192 0.0 1.6 0.00 0.00 0.00 84 1012.5
20260510000509 20 192 1.6 3.2 0.00 0.00 0.00 82 1012.3
20260510000017 20 192 0.0 3.2 0.00 0.00 0.00 82 1012.3
20260509235504 21 192 0.0 3.2 0.00 0.00 0.00 80 1012.2
20260509235003 21 192 0.0 3.2 0.00 0.00 0.00 76 1012.1
20260509234509 21 192 0.0 3.2 0.00 0.00 0.00 80 1012.0
20260509234004 21 192 0.0 3.2 0.00 0.00 0.00 82 1012.0
20260509233505 21 192 0.0 3.2 0.00 0.00 0.00 78 1012.1
20260509233018 21 209 0.0 3.2 0.00 0.00 0.00 78 1012.2
20260509232504 21 207 0.0 3.2 0.00 0.00 0.00 78 1012.1
20260509232008 22 207 0.0 3.2 0.00 0.00 0.00 67 1012.1
20260509231519 22 207 0.0 3.2 0.00 0.00 0.00 67 1012.1